Regional Weather Roundup
Issued by NWS

Home | Current Version | Previous Version | Graphics & Text | Print | Product List | Glossary On
Versions: 1 2 3 4 5 6 7 8 9 10 11 12 13 14 15 16 17 18 19 20 21 22 23 24 25 26 27 28 29 30 31 32 33 34 35 36 37 38 39 40 41 42 43 44 45 46 47 48 49 50
669
ASUS45 KSLC 200610
RWRUT

UTAH REGIONAL WEATHER ROUNDUP
NATIONAL WEATHER SERVICE SALT LAKE CITY UT
1100 PM MST SUN FEB 19 2017

UTZ001>011-023>025-200700-

NORTHERN UTAH

CITY           SKY/WX    TMP DP  RH WIND       PRES   REMARKS
BRIGHAM CITY     N/A     37  32  83 CALM      29.91R
HILL AFB       CLEAR     39  32  75 E13       29.90R WCI  32
LOGAN          CLEAR     35  30  82 S5        29.90S WCI  31
OGDEN          CLEAR     38  33  82 S10       29.89R WCI  31
SALT LAKE CITY PTCLDY    42  37  82 SE9       29.89R
TOOELE VALLEY  CLEAR     36  34  93 S8        29.90S WCI  29
WENDOVER       PTCLDY    37  28  70 NW5       29.88S WCI  34
HEBER CITY     CLEAR     30  30 100 CALM      29.94R
WEST JORDAN    CLEAR     41  39  95 S5        29.92R

$$

UTZ011>015-024>027-200700-

CENTRAL/NORTHEAST UTAH

CITY           SKY/WX    TMP DP  RH WIND       PRES   REMARKS
PROVO AIRPORT  MOCLDY    38  35  89 E3        29.96R
MOAB/CANYONLAN PTCLDY    36  36 100 SW5       29.97R WCI  32
DELTA          CLEAR     41  34  75 S16G23    29.95R
PRICE          CLOUDY    35  35 100 SW3       29.98R
RICHFIELD      CLEAR     43  32  65 SW10      29.99R
ROOSEVELT      CLEAR     36  34  93 S3        29.98R
VERNAL         MOCLDY    32  31  96 CALM      29.96R

$$

UTZ013>016-019>022-027-200700-

SOUTHERN UTAH

CITY           SKY/WX    TMP DP  RH WIND       PRES   REMARKS
BRYCE CANYON   PTCLDY    26  23  88 SW9       30.04R WCI  17
CEDAR CITY     CLEAR     38  32  79 S3        30.00S
MILFORD        CLOUDY    42  35  76 S14       29.99R
ST GEORGE      PTCLDY    47  43  86 CALM      30.05R
HANKSVILLE     CLEAR     34  32  93 NE3       29.99R
KANAB          CLEAR     39  37  93 S5        30.10R
BLANDING       CLEAR     33  33  97 CALM      30.08R

$$

REGIONAL REPORTS     COLORADO/ARIZONA

CITY           SKY/WX    TMP DP  RH WIND       PRES   REMARKS
CRAIG, CO      CLOUDY    31  28  89 SE5       29.97R WCI  26
GRAND JUNCTION CLOUDY    40  40 100 SW3       29.98R
RIFLE, CO      CLOUDY    40  37  89 W3        29.97R
MONTROSE, CO   CLOUDY    36  36 100 S3        30.00R
CORTEZ, CO     CLOUDY    36  35  96 NE5       30.01R WCI  32
COLORADO CITY    N/A     39  37  93 SE3       30.09R
PAGE, AZ       CLEAR     44  31  60 W3        30.02R
GRAND CANYON   CLOUDY    35  35 100 SW6       30.10R FOG     WCI  30
KINGMAN, AZ    PTCLDY    47  41  80 SE6       30.08R
FLAGSTAFF, AZ  FLURRIES  33  31  92 W6        30.11R WCI  28

$$

REGIONAL REPORTS    NEVADA/IDAHO/WYOMING

CITY           SKY/WX    TMP DP  RH WIND       PRES   REMARKS
LAS VEGAS, NV  MOCLDY    55  44  66 S7        29.99R
ELY, NY        MOCLDY    39  33  79 S15G22    29.96R WCI  31
ELKO, NV       CLOUDY    42  33  70 CALM      29.87R
POCATELLO, ID  CLEAR     30  27  88 N10       29.89R WCI  21
BURLEY, ID     MOCLDY    35  30  82 NE5       29.85R WCI  31
FORT BRIDGER,    N/A     32  29  90 SW16      29.95S WCI  21
EVANSTON, WY   CLEAR     30  24  78 S3        29.94R
ROCK SPRINGS,  CLOUDY    31  27  85 CALM      29.95R

$$




USA.gov is the U.S. government's official web portal to all federal, state and local government web resources and services.